Springfield, VT

8:39 AM EDT on September 25, 2017 (GMT -0400)
Hartness State

Weather History for KVSF - May, 2013

Change the Weather History Date:

Sunday, May 19, 2013

  Actual Average Record
Temperature  
Mean Temperature 54 °F 56 °F  
Max Temperature 68 °F 68 °F 83 °F (2012)
Min Temperature 40 °F 44 °F 28 °F (2002)
Degree Days  
Heating Degree Days 12 9  
Month to date heating degree days 223  
Since 1 July heating degree days 7329  
Cooling Degree Days 0 0  
Month to date cooling degree days 0 0  
Year to date cooling degree days 0 2  
Growing Degree Days 4 (Base 50)    
Moisture  
Dew Point 47 °F    
Average Humidity 75    
Maximum Humidity 100    
Minimum Humidity 49    
Precipitation  
Precipitation 0.11 in 0.12 in 2.31 in (1999)
Month to date precipitation 1.22 1.99  
Year to date precipitation 8.19 14.52  
Sea Level Pressure  
Sea Level Pressure 30.28 in    
Wind  
Wind Speed 3 mph (SSE)    
Max Wind Speed 14 mph    
Max Gust Speed 20 mph    
Visibility 8 miles    
Events Fog , Rain    
T = Trace of Precipitation, MM = Missing Value Source: NWS Daily Summary

Daily Weather History Graph

Daily Weather History Graph

Search for Another Location

Airport or City:

Trip Planner

Search our weather history database for the weather conditions in past years. The results will help you decide how hot, cold, wet, or windy it might be!

Date:

Astronomy

May. 19, 2013 Rise Set
Actual Time 5:21 AM EDT 8:12 PM EDT
Civil Twilight 4:48 AM EDT 8:45 PM EDT
Nautical Twilight 4:06 AM EDT 9:27 PM EDT
Astronomical Twilight 3:17 AM EDT 10:17 PM EDT
Moon 2:03 PM EDT (5/19) 1:54 AM EDT (5/19)
Length of Visible Light 15h 57m
Length of Day
14h 50m
Waxing Gibbous, 65% of the Moon is Illuminated
May 19
Waxing Gibbous
May 25
Full
May 31
Last Quarter
Jun 8
New
Jun 16
First Quarter

Hourly Weather History & Observations

Time (EDT) Temp. Dew Point Humidity Pressure Visibility Wind Dir Wind Speed Gust Speed Precip Events Conditions
12:54 AM 44.1 °F 42.1 °F 93% 30.29 in 10.0 mi Calm Calm - N/A   Clear
1:54 AM 44.1 °F 42.1 °F 93% 30.29 in 10.0 mi Calm Calm - N/A   Clear
2:54 AM 42.1 °F 41.0 °F 96% 30.30 in 10.0 mi Calm Calm - N/A   Clear
3:54 AM 42.1 °F 39.9 °F 92% 30.31 in 10.0 mi Calm Calm - N/A   Clear
4:54 AM 41.0 °F 39.9 °F 96% 30.32 in 10.0 mi Calm Calm - N/A   Clear
5:14 AM 41.0 °F 39.2 °F 93% 30.31 in 1.5 mi Calm Calm - N/A   Partly Cloudy
5:16 AM 41.0 °F 39.2 °F 93% 30.31 in 0.8 mi Calm Calm - N/A   Mist
5:26 AM 41.0 °F 41.0 °F 100% 30.31 in 0.2 mi Calm Calm - N/A Fog Fog
5:46 AM 39.2 °F 39.2 °F 100% 30.32 in 0.5 mi Calm Calm - N/A Fog Fog
5:54 AM 41.0 °F 39.9 °F 96% 30.32 in 0.2 mi Calm Calm - N/A Fog Fog
6:02 AM 41.0 °F 41.0 °F 100% 30.32 in 1.0 mi Calm Calm - N/A   Mist
6:11 AM 41.0 °F 41.0 °F 100% 30.32 in 3.0 mi Calm Calm - N/A   Mostly Cloudy
6:24 AM 41.0 °F 41.0 °F 100% 30.32 in 3.0 mi Calm Calm - N/A   Scattered Clouds
6:54 AM 42.1 °F 41.0 °F 96% 30.34 in 10.0 mi Calm Calm - N/A   Clear
8:54 AM 54.0 °F 46.9 °F 77% 30.33 in 10.0 mi Calm Calm - N/A   Clear
9:54 AM 60.1 °F 48.0 °F 64% 30.32 in 10.0 mi Calm Calm - N/A   Clear
10:54 AM 64.0 °F 48.9 °F 58% 30.31 in 10.0 mi Calm Calm - N/A   Mostly Cloudy
11:54 AM 68.0 °F 48.9 °F 50% 30.29 in 10.0 mi SE 10.4 mph - N/A   Partly Cloudy
12:54 PM 66.9 °F 51.1 °F 57% 30.27 in 10.0 mi SSE 11.5 mph 18.4 mph N/A   Mostly Cloudy
1:54 PM 64.0 °F 50.0 °F 60% 30.27 in 10.0 mi Variable 5.8 mph 17.3 mph N/A   Overcast
3:54 PM 61.0 °F 51.1 °F 70% 30.27 in 10.0 mi South 4.6 mph - 0.00 in Rain Light Rain
4:54 PM 57.9 °F 53.1 °F 84% 30.27 in 10.0 mi SSW 3.5 mph - 0.00 in Rain Light Rain
5:54 PM 55.9 °F 53.1 °F 90% 30.26 in 8.0 mi South 4.6 mph - 0.03 in Rain Light Rain
6:29 PM 55.4 °F 53.6 °F 94% 30.24 in 5.0 mi South 3.5 mph - 0.02 in Rain Light Rain
6:54 PM 55.9 °F 55.0 °F 97% 30.25 in 5.0 mi SSE 3.5 mph - 0.03 in Rain Light Rain
7:23 PM 55.4 °F 53.6 °F 94% 30.23 in 10.0 mi Calm Calm - 0.00 in Rain Light Rain
7:33 PM 55.4 °F 53.6 °F 94% 30.23 in 9.0 mi Variable 3.5 mph - 0.00 in Rain Light Rain
7:54 PM 55.9 °F 54.0 °F 93% 30.23 in 10.0 mi ESE 3.5 mph - 0.01 in Rain Light Rain
8:13 PM 55.4 °F 53.6 °F 94% 30.22 in 10.0 mi Calm Calm - 0.00 in Rain Light Rain
8:18 PM 55.4 °F 53.6 °F 94% 30.22 in 10.0 mi Calm Calm - 0.01 in Rain Light Rain
8:26 PM 55.4 °F 53.6 °F 94% 30.22 in 10.0 mi SE 3.5 mph - 0.01 in Rain Light Rain
8:54 PM 55.0 °F 53.1 °F 93% 30.23 in 10.0 mi Variable 3.5 mph - 0.02 in Rain Light Rain
9:54 PM 54.0 °F 53.1 °F 97% 30.22 in 10.0 mi Calm Calm - 0.01 in Rain Light Rain
10:54 PM 54.0 °F 53.1 °F 97% 30.21 in 10.0 mi ESE 3.5 mph - 0.00 in   Overcast